Pittsburgh, PA

10:10 AM EST on December 11, 2019 (GMT -0500)
Pittsburgh International

Weather History for KPIT - October, 2019

Change the Weather History Date:

Tuesday, October 15, 2019

  Actual Average Record
Temperature  
Mean Temperature 52 °F 53 °F  
Max Temperature 66 °F 63 °F 87 °F (1897)
Min Temperature 37 °F 43 °F 30 °F (1876)
Degree Days  
Heating Degree Days 14 12  
Month to date heating degree days 153  
Since 1 July heating degree days 267  
Cooling Degree Days 0 0  
Month to date cooling degree days 6  
Year to date cooling degree days 734  
Growing Degree Days 2 (Base 50)    
Moisture  
Dew Point 38 °F    
Average Humidity 63    
Maximum Humidity 93    
Minimum Humidity 34    
Precipitation  
Precipitation 0.00 in 0.07 in 3.56 in (1954)
Month to date precipitation 1.09  
Year to date precipitation 30.91  
Snow  
Snow - 0.00 in T in (1961)
Month to date snowfall 0.0  
Since 1 July snowfall 0.0  
Snow Depth -    
Sea Level Pressure  
Sea Level Pressure 30.06 in    
Wind  
Wind Speed 2 mph ()    
Max Wind Speed 13 mph    
Max Gust Speed -    
Visibility 10.0 miles    
Events      
T = Trace of Precipitation, MM = Missing Value Source: Averaged Metar Reports

Daily Weather History Graph

Daily Weather History Graph

Search for Another Location

Airport or City:

Astronomy

Oct. 15, 2019 Rise Set
Actual Time 7:31 AM EDT 6:41 PM EDT
Civil Twilight 7:04 AM EDT 7:08 PM EDT
Nautical Twilight 6:32 AM EDT 7:40 PM EDT
Astronomical Twilight 6:00 AM EDT 8:11 PM EDT
Moon 8:00 PM EDT (10/15) 9:00 AM EDT (10/15)
Length of Visible Light 12h 04m
Length of Day
11h 09m
Full, 97% of the Moon is Illuminated
Oct 15
Full
Oct 21
Last Quarter
Oct 27
New
Nov 4
First Quarter
Nov 12
Full

Hourly Weather History & Observations

Time (EDT) Temp. Windchill Dew Point Humidity Pressure Visibility Wind Dir Wind Speed Gust Speed Precip Events Conditions
12:51 AM 46.0 °F - 37.0 °F 71% 30.15 in 10.0 mi Calm Calm - N/A   Partly Cloudy
1:51 AM 43.0 °F - 37.0 °F 80% 30.16 in 10.0 mi Calm Calm - N/A   Partly Cloudy
2:51 AM 41.0 °F - 36.0 °F 82% 30.17 in 10.0 mi Calm Calm - N/A   Partly Cloudy
3:51 AM 39.9 °F - 36.0 °F 86% 30.17 in 10.0 mi Calm Calm - N/A   Clear
4:51 AM 39.9 °F - 35.1 °F 83% 30.16 in 10.0 mi Calm Calm - N/A   Partly Cloudy
5:51 AM 37.9 °F - 35.1 °F 89% 30.17 in 10.0 mi Calm Calm - N/A   Partly Cloudy
6:51 AM 37.9 °F - 34.0 °F 86% 30.18 in 10.0 mi Calm Calm - N/A   Partly Cloudy
7:51 AM 37.9 °F - 36.0 °F 93% 30.19 in 10.0 mi Calm Calm - N/A   Scattered Clouds
8:51 AM 42.1 °F - 37.9 °F 85% 30.18 in 10.0 mi Calm Calm - N/A   Scattered Clouds
9:51 AM 46.0 °F 43.9 °F 39.9 °F 79% 30.18 in 10.0 mi SE 4.6 mph - N/A   Mostly Cloudy
10:51 AM 51.1 °F - 41.0 °F 68% 30.16 in 10.0 mi SE 4.6 mph - N/A   Mostly Cloudy
11:51 AM 55.9 °F - 39.9 °F 55% 30.13 in 10.0 mi SE 6.9 mph - N/A   Scattered Clouds
12:51 PM 59.0 °F - 39.9 °F 49% 30.10 in 10.0 mi Variable 4.6 mph - N/A   Scattered Clouds
1:51 PM 63.0 °F - 41.0 °F 45% 30.06 in 10.0 mi South 5.8 mph - N/A   Partly Cloudy
2:51 PM 64.9 °F - 37.9 °F 37% 30.02 in 10.0 mi South 8.1 mph - N/A   Partly Cloudy
3:51 PM 66.0 °F - 39.0 °F 37% 29.99 in 10.0 mi SE 10.4 mph - N/A   Partly Cloudy
4:51 PM 66.9 °F - 37.9 °F 34% 29.96 in 10.0 mi SSE 12.7 mph - N/A   Partly Cloudy
5:51 PM 66.0 °F - 37.9 °F 36% 29.95 in 10.0 mi SE 5.8 mph - N/A   Partly Cloudy
6:51 PM 62.1 °F - 36.0 °F 38% 29.93 in 10.0 mi SE 5.8 mph - N/A   Partly Cloudy
7:51 PM 57.9 °F - 39.9 °F 51% 29.93 in 10.0 mi Calm Calm - N/A   Scattered Clouds
8:51 PM 54.0 °F - 41.0 °F 62% 29.91 in 10.0 mi Calm Calm - N/A   Mostly Cloudy
9:51 PM 54.0 °F - 39.9 °F 59% 29.89 in 10.0 mi SE 3.5 mph - N/A   Mostly Cloudy
10:51 PM 55.0 °F - 41.0 °F 59% 29.88 in 10.0 mi SSE 4.6 mph - N/A   Mostly Cloudy
11:51 PM 55.0 °F - 41.0 °F 59% 29.86 in 10.0 mi SSE 6.9 mph - N/A   Mostly Cloudy